Overview Statistics Trail Chart Weather Telemetry Raw packets
 

This is the latest recevied weather packets stored in our database for station/object NR0A-4. If no packets are shown the sender has not sent any weather packets the latest 10 day(s).

<< 87 88 89 90 91 92 93 >>
Time Temp. Humidity Pressure Rain* Wind** Luminosity Snow
1788020404 26.67° C 60% 1009.9 hPa 0 mm - 306 W/m² -
1788020104 27.22° C 60% 1010 hPa 0 mm - 299 W/m² -
1788019805 27.22° C 59% 1009.9 hPa 0 mm - 308 W/m² -
1788019505 27.78° C 59% 1009.9 hPa 0 mm - 357 W/m² -
1788019205 27.78° C 58% 1009.9 hPa 0 mm - 624 W/m² -
1788018905 27.78° C 59% 1009.8 hPa 0 mm - 853 W/m² -
1788018604 27.22° C 61% 1010 hPa 0 mm - 773 W/m² -
1788018304 26.67° C 61% 1010 hPa 0 mm - 677 W/m² -
1788018004 26.67° C 61% 1009.9 hPa 0 mm - 635 W/m² -
1788017705 26.67° C 61% 1010 hPa 0 mm - 668 W/m² -
1788017406 26.11° C 61% 1009.9 hPa 0 mm - 645 W/m² -
1788017104 26.11° C 61% 1010 hPa 0 mm - 445 W/m² -
1788016805 26.11° C 61% 1010 hPa 0 mm - 566 W/m² -
1788016511 26.11° C 61% 1010 hPa 0 mm - 555 W/m² -
1788016205 26.11° C 61% 1010.1 hPa 0 mm - 541 W/m² -
1788015909 25.56° C 62% 1010.1 hPa 0 mm - 529 W/m² -
1788015604 25.56° C 63% 1010 hPa 0 mm - 527 W/m² -
1788015305 25.56° C 63% 1009.9 hPa 0 mm - 469 W/m² -
1788015004 25° C 62% 1010 hPa 0 mm - 450 W/m² -
1788014705 25° C 64% 1010.1 hPa 0 mm - 432 W/m² -
1788014405 24.44° C 64% 1010.3 hPa 0 mm - 418 W/m² -
1788014104 24.44° C 65% 1010.2 hPa 0 mm - 415 W/m² -
1788013805 23.89° C 66% 1010.2 hPa 0 mm - 408 W/m² -
1788013504 23.89° C 67% 1010.2 hPa 0 mm - 125 W/m² -
1788013205 23.33° C 66% 1010.2 hPa 0 mm - 320 W/m² -

* Rain latest hour (hover to see other rain measurements)
** Current wind speed in m/s (hover to see current wind gust speed)